(55106) = 1994 GL2 = 2001 QR141

Discovered at Socorro on 2001-08-24 by LINEAR.

Orbit

Orbit type: Main Belt

Note: WebGL enabled browser required.

epoch2024-03-31.0
epoch JD2460400.5
perihelion date2023-01-05.13694
perihelion JD2459949.63694
argument of perihelion (°)315.88305
ascending node (°)112.88107
inclination (°)3.27422
eccentricity0.0702062
perihelion distance (AU)2.7397320
Tisserand w.r.t. Jupiter3.3
ΔV w.r.t. Earth (km/sec)10.4
semimajor axis (AU)2.9466017
mean anomaly (°)87.85497
mean daily motion (°/day)0.19485960
aphelion distance (AU)3.153
period (years)5.06
P-vector [x]0.36116137
P-vector [y]0.87059232
P-vector [z]0.33411298
Q-vector [x]-0.93101747
Q-vector [y]0.31642727
Q-vector [z]0.18187978
absolute magnitude15.02
phase slope0.15
uncertainty0
referenceMPEC 2024-F14
observations used1155
oppositions20
arc length (days)10939
first opposition used1994
last opposition used2024
residual rms (arc-secs)0.66
perturbers coarse indicatorM-v
perturbers precise indicator003Ek
first observation date used1994-04-05.0
last observation date used2024-03-17.0
computer nameMPCLINUX
JD of orbit computation2456819.586414
perihelion JD uncertainty (days)1.7475E-04
argument of perihelion uncertainty (°)9.1994E-05
ascending node uncertainty (°)8.4783E-05
inclination uncertainty (°)3.9595E-06
eccentricity uncertainty 4.2573E-08
perihelion distance uncertainty (AU)1.2417E-07
Minimum Orbit Intersection Distances (in AU)
for orbit epoch: 2460400.5, reference: E2024-F14
Mercury2.43204
Venus2.01905
Earth1.75547
Mars1.17047
Jupiter2.04421
Saturn6.2825
Uranus15.4558
Neptune27.0237

Observations

1177 total observations over interval: 1994 04 05.33384 – 2024 03 17.378464
These data are available for download (format description).

Date (UT) J2000 RA J2000 Dec Magn Location Ref
1994 04 05.33384 12 33 56.74 +01 28 30.9 19.2 V 691 – Steward Observatory, Kitt Peak-Spacewatch MPC 23416
1994 04 05.35725 12 33 55.64 +01 28 37.7   691 – Steward Observatory, Kitt Peak-Spacewatch MPC 23416
1994 04 05.38157 12 33 54.53 +01 28 44.1   691 – Steward Observatory, Kitt Peak-Spacewatch MPC 23416
1994 04 06.34377 12 33 11.01 +01 33 21.0   691 – Steward Observatory, Kitt Peak-Spacewatch MPC 23416
1994 04 06.35300 12 33 10.58 +01 33 23.6   691 – Steward Observatory, Kitt Peak-Spacewatch MPC 23416
1994 04 06.36033 12 33 10.22 +01 33 25.4 19.3 V 691 – Steward Observatory, Kitt Peak-Spacewatch MPC 23416
1999 03 22.30049 12 23 03.02 +02 31 03.3 18.7 R 699 – Lowell Observatory-LONEOS MPS 58911
1999 03 22.32241 12 23 01.96 +02 31 10.4   699 – Lowell Observatory-LONEOS MPS 58911
1999 03 22.34279 12 23 01.08 +02 31 17.8   699 – Lowell Observatory-LONEOS MPS 58911
1999 03 23.37159 12 22 13.52 +02 36 53.3 18.8 R 699 – Lowell Observatory-LONEOS MPS 58911
1999 03 23.40221 12 22 11.97 +02 37 03.0   699 – Lowell Observatory-LONEOS MPS 58911
1999 03 23.43292 12 22 10.68 +02 37 10.8   699 – Lowell Observatory-LONEOS MPS 58911
1999 04 07.27255 12 10 59.97 +03 50 55.6 18.8 R 699 – Lowell Observatory-LONEOS MPS 61154
1999 04 07.29443 12 10 59.08 +03 51 01.9   699 – Lowell Observatory-LONEOS MPS 61154
1999 04 07.30971 12 10 58.25 +03 51 06.2   699 – Lowell Observatory-LONEOS MPS 61154
2001 08 24.36859 23 07 19.10 -09 32 48.7 19.3   704 – Lincoln Laboratory ETS, New Mexico MPS 33685
2001 08 24.38170 23 07 18.48 -09 32 53.1 19.7   704 – Lincoln Laboratory ETS, New Mexico MPS 33685
2001 08 24.39483 23 07 17.93 -09 32 57.8 19.2   704 – Lincoln Laboratory ETS, New Mexico MPS 33685
2001 08 25.24302 23 06 42.43 -09 37 36.3 19.4   644 – Palomar Mountain/NEAT MPS 34739
2001 08 25.24708 23 06 42.12 -09 37 37.6 19.0   704 – Lincoln Laboratory ETS, New Mexico MPS 33685
2001 08 25.26346 23 06 41.47 -09 37 42.3 19.5   704 – Lincoln Laboratory ETS, New Mexico MPS 33685
2001 08 25.26446 23 06 41.47 -09 37 43.0 19.2   644 – Palomar Mountain/NEAT MPS 34739
2001 08 25.27905 23 06 40.80 -09 37 48.0 19.4   704 – Lincoln Laboratory ETS, New Mexico MPS 33685
2001 08 25.28600 23 06 40.53 -09 37 50.1 19.1   644 – Palomar Mountain/NEAT MPS 34739
2001 08 25.29424 23 06 40.12 -09 37 52.3 19.2   704 – Lincoln Laboratory ETS, New Mexico MPS 33685
2001 08 25.30981 23 06 39.45 -09 37 57.3 19.8   704 – Lincoln Laboratory ETS, New Mexico MPS 33685
2001 09 12.26458 22 53 08.29 -11 14 56.9 19.0   704 – Lincoln Laboratory ETS, New Mexico MPS 36045
2001 09 12.27894 22 53 07.64 -11 15 01.2 19.0   704 – Lincoln Laboratory ETS, New Mexico MPS 36045
2001 09 12.29416 22 53 06.90 -11 15 05.6 19.0   704 – Lincoln Laboratory ETS, New Mexico MPS 36045
2001 09 12.30905 22 53 06.26 -11 15 10.7 19.4   704 – Lincoln Laboratory ETS, New Mexico MPS 36045
2001 09 19.20209 22 48 04.57 -11 47 33.5 19.6   704 – Lincoln Laboratory ETS, New Mexico MPS 36045
2001 09 19.21684 22 48 03.79 -11 47 36.5 19.4   704 – Lincoln Laboratory ETS, New Mexico MPS 36045
2001 09 19.23138 22 48 03.20 -11 47 42.0 19.7   704 – Lincoln Laboratory ETS, New Mexico MPS 36045
2001 09 19.24528 22 48 02.58 -11 47 44.3 20.1   704 – Lincoln Laboratory ETS, New Mexico MPS 36045
2002 12 10.29633 05 32 21.88 +20 36 21.1 19.8   704 – Lincoln Laboratory ETS, New Mexico MPS 67861
2002 12 10.31193 05 32 21.00 +20 36 22.3 19.8   704 – Lincoln Laboratory ETS, New Mexico MPS 67861
2002 12 10.35873 05 32 18.19 +20 36 23.2 19.8   704 – Lincoln Laboratory ETS, New Mexico MPS 67861
2002 12 11.30030 05 31 25.55 +20 36 37.5 18.7   704 – Lincoln Laboratory ETS, New Mexico MPS 67861
2002 12 11.31550 05 31 24.72 +20 36 38.6 19.0   704 – Lincoln Laboratory ETS, New Mexico MPS 67861
2002 12 11.33073 05 31 23.84 +20 36 38.3 19.0   704 – Lincoln Laboratory ETS, New Mexico MPS 67861
2002 12 11.36095 05 31 22.06 +20 36 39.3 18.9   704 – Lincoln Laboratory ETS, New Mexico MPS 67861
2002 12 31.22331 05 13 31.90 +20 44 25.4 19.4   704 – Lincoln Laboratory ETS, New Mexico MPS 69787
2002 12 31.23840 05 13 31.16 +20 44 25.8 19.4   704 – Lincoln Laboratory ETS, New Mexico MPS 69787
2002 12 31.25331 05 13 30.41 +20 44 26.3 19.5   704 – Lincoln Laboratory ETS, New Mexico MPS 69787
2002 12 31.26828 05 13 29.70 +20 44 26.1 19.7   704 – Lincoln Laboratory ETS, New Mexico MPS 69787
2002 12 31.28462 05 13 28.83 +20 44 27.2 19.4   704 – Lincoln Laboratory ETS, New Mexico MPS 69787
2003 01 01.26480 05 12 43.13 +20 44 59.7 19.1   704 – Lincoln Laboratory ETS, New Mexico MPS 69787
2003 01 01.27973 05 12 42.43 +20 45 00.5 19.7   704 – Lincoln Laboratory ETS, New Mexico MPS 69787
2003 01 01.29490 05 12 41.66 +20 45 00.5 19.4   704 – Lincoln Laboratory ETS, New Mexico MPS 69787
2003 01 01.32500 05 12 40.24 +20 45 01.8 19.4   704 – Lincoln Laboratory ETS, New Mexico MPS 69787
2003 01 04.23158 05 10 31.21 +20 46 42.7 19.2   704 – Lincoln Laboratory ETS, New Mexico MPS 69787
2003 01 04.24601 05 10 30.53 +20 46 42.9 19.4   704 – Lincoln Laboratory ETS, New Mexico MPS 69787
2003 01 04.26053 05 10 29.92 +20 46 44.2 19.5   704 – Lincoln Laboratory ETS, New Mexico MPS 69788
2003 01 04.27506 05 10 29.31 +20 46 44.8 19.5   704 – Lincoln Laboratory ETS, New Mexico MPS 69788
2003 01 04.28983 05 10 28.65 +20 46 44.4 19.4   704 – Lincoln Laboratory ETS, New Mexico MPS 69788
2003 01 08.24038 05 07 50.82 +20 49 22.7 19.6   704 – Lincoln Laboratory ETS, New Mexico MPS 69788
2003 01 08.25510 05 07 50.19 +20 49 23.7 20.0   704 – Lincoln Laboratory ETS, New Mexico MPS 69788
2003 01 08.27072 05 07 49.59 +20 49 23.0 20.2   704 – Lincoln Laboratory ETS, New Mexico MPS 69788
2003 01 08.28587 05 07 48.96 +20 49 23.8 19.9   704 – Lincoln Laboratory ETS, New Mexico MPS 69788
2003 01 08.30061 05 07 48.42 +20 49 24.4 20.1   704 – Lincoln Laboratory ETS, New Mexico MPS 69788
2004 02 16.39679 12 23 17.81 +01 47 09.7 18.9 V 703 – Catalina Sky Survey MPS 99761
2004 02 16.40594 12 23 17.61 +01 47 11.8 19.2 V 703 – Catalina Sky Survey MPS 99761
2004 02 16.41515 12 23 17.41 +01 47 14.5 19.4 V 703 – Catalina Sky Survey MPS 99761
2004 02 16.42436 12 23 17.13 +01 47 17.1 19.6 V 703 – Catalina Sky Survey MPS 99761
2004 02 19.37163 12 22 06.45 +01 59 22.9 19.2   704 – Lincoln Laboratory ETS, New Mexico MPS 99761
2004 02 19.38615 12 22 06.16 +01 59 27.8 19.7   704 – Lincoln Laboratory ETS, New Mexico MPS 99761
2004 02 19.39816 12 22 05.76 +01 59 30.7 19.9   704 – Lincoln Laboratory ETS, New Mexico MPS 99761
2004 02 19.41082 12 22 05.40 +01 59 32.9 20.0   704 – Lincoln Laboratory ETS, New Mexico MPS 99761
2004 02 19.42445 12 22 05.04 +01 59 36.8 20.0   704 – Lincoln Laboratory ETS, New Mexico MPS 99761
2004 02 23.34398 12 20 14.48 +02 17 12.5 19.3   704 – Lincoln Laboratory ETS, New Mexico MPS 100594
2004 02 23.35633 12 20 14.09 +02 17 16.9 19.5   704 – Lincoln Laboratory ETS, New Mexico MPS 100594
2004 02 23.36867 12 20 13.70 +02 17 21.2 19.4   704 – Lincoln Laboratory ETS, New Mexico MPS 100594
2004 02 23.38008 12 20 13.33 +02 17 23.3 20.0   704 – Lincoln Laboratory ETS, New Mexico MPS 100594
2004 02 23.39834 12 20 12.79 +02 17 28.9 19.5   704 – Lincoln Laboratory ETS, New Mexico MPS 100594
2004 02 25.34936 12 19 11.20 +02 26 46.0 20.7 R 683 – Goodricke-Pigott Observatory, Tucson MPS 100594
2004 02 25.36277 12 19 10.64 +02 26 49.5 20.4 R 683 – Goodricke-Pigott Observatory, Tucson MPS 100594
2004 02 25.37616 12 19 10.20 +02 26 55.7 20.4 R 683 – Goodricke-Pigott Observatory, Tucson MPS 100594
2004 03 11.35043 12 09 22.48 +03 46 50.7 18.8   644 – Palomar Mountain/NEAT MPS 101849
2004 03 11.37353 12 09 21.43 +03 46 58.9 19.0   644 – Palomar Mountain/NEAT MPS 101849
2004 03 11.39477 12 09 20.42 +03 47 05.7 19.0   644 – Palomar Mountain/NEAT MPS 101849
2004 03 15.30187 12 06 24.20 +04 08 59.8 18.9 V 703 – Catalina Sky Survey MPS 101849
2004 03 15.31254 12 06 23.70 +04 09 02.0 19.1   704 – Lincoln Laboratory ETS, New Mexico MPS 101849
2004 03 15.31554 12 06 23.54 +04 09 03.2 19.0 V 703 – Catalina Sky Survey MPS 101849
2004 03 15.32341 12 06 23.16 +04 09 05.1 19.5   704 – Lincoln Laboratory ETS, New Mexico MPS 101849
2004 03 15.32919 12 06 22.93 +04 09 08.4 19.4 V 703 – Catalina Sky Survey MPS 101849
